Wind_Speed
4 3 3 3 2 4 7 8 8 6 5 3 4 8 9 8 8 8 7 4 3 2 3 7 10 12 12 11 9 8 9 10 9 9 10 11 10 9 7 6 6 6 5 6 8 13 20 23 25
5 5 4 4 3 6 6 7 7 7 6 4 5 7 9 9 10 10 9 7 5 3 3 6 10 11 12 11 9 8 9 10 10 10 11 11 11 9 7 7 6 5 5 5 4 7 16 22 25
6 6 5 3 5 4 5 5 6 7 6 6 6 7 8 9 9 10 10 9 7 5 4 6 9 10 11 10 9 8 8 9 11 11 12 12 11 10 8 8 7 5 4 4 3 2 11 20 25
7 6 4 3 2 2 4 5 5 5 6 7 7 7 8 8 8 8 10 10 8 7 6 6 8 9 10 10 9 8 8 9 10 12 12 12 11 10 9 8 7 6 4 3 3 1 5 16 23
8 6 3 2 1 1 3 5 6 6 7 9 9 8 9 8 8 8 9 9 9 8 6 6 7 9 9 9 9 8 9 9 11 12 13 12 11 10 10 9 7 6 5 3 2 2 2 8 18
8 7 4 0 1 1 2 4 7 9 9 9 9 8 8 8 8 8 9 10 9 9 7 6 7 8 8 9 9 9 9 10 11 14 15 14 13 11 10 9 8 6 6 5 3 2 2 5 8
8 8 6 3 4 3 2 5 9 11 11 11 11 10 9 7 7 8 8 10 10 9 8 8 8 8 9 9 9 9 10 11 12 15 16 16 14 12 10 10 9 7 7 7 7 7 6 6 7
10 9 9 7 6 5 4 5 8 10 10 11 11 10 9 6 6 7 8 10 10 10 9 8 8 8 9 10 10 10 11 12 13 16 18 17 15 13 12 11 9 8 8 9 10 10 11 10 10
11 9 7 6 9 7 6 7 7 9 8 8 9 10 9 8 6 6 7 9 10 10 9 8 9 9 9 10 11 12 11 12 14 16 18 18 15 14 13 12 10 10 9 9 11 13 14 14 14
12 11 9 10 11 10 8 7 8 9 9 8 7 8 9 9 7 5 7 9 10 10 9 10 10 10 10 11 13 13 12 12 14 16 18 18 17 16 14 13 12 10 10 9 10 13 16 17 18
15 14 13 12 12 12 11 9 9 10 11 11 10 8 10 11 9 7 7 9 10 10 10 11 12 12 12 13 14 15 14 13 14 16 19 19 18 16 15 14 13 11 10 9 9 12 15 18 20
18 16 15 14 14 13 13 11 11 11 12 13 15 15 13 13 12 10 9 10 11 12 13 13 13 13 13 14 15 16 16 16 16 18 20 19 17 16 16 15 14 12 11 10 9 11 14 17 18
19 18 16 15 15 15 15 14 13 14 13 14 15 17 17 16 14 12 12 13 14 14 15 15 16 15 15 15 15 16 16 16 17 18 19 19 17 16 17 16 14 13 12 11 10 11 13 15 17
20 19 18 17 17 17 17 16 16 17 17 18 18 18 19 18 17 16 13 13 15 16 16 17 17 17 16 16 16 16 16 17 18 18 19 18 17 17 17 16 14 13 13 12 12 12 12 14 16
22 21 21 20 21 21 21 19 20 21 21 21 22 22 21 20 19 19 18 16 15 16 16 16 17 17 17 17 18 18 18 18 18 19 19 18 17 18 19 17 15 13 13 13 13 13 13 14 15
25 25 24 24 27 27 26 24 25 26 25 24 24 24 23 21 21 22 22 20 18 17 16 14 16 17 17 18 19 19 19 19 19 19 20 19 18 18 20 20 16 14 13 13 14 15 15 15 15
29 29 28 27 29 32 32 30 28 30 29 27 26 25 26 24 21 23 23 21 20 19 17 15 16 17 18 20 20 20 21 20 21 21 21 21 20 19 20 22 20 16 14 15 16 16 16 16 15
33 34 33 33 33 34 34 33 31 33 32 31 28 27 27 27 25 23 23 21 20 20 19 18 18 19 19 20 21 21 22 22 22 23 23 23 22 22 22 23 23 20 18 17 17 18 17 16 15
38 39 40 40 40 39 36 35 34 32 33 33 30 28 28 28 28 27 23 21 19 19 20 20 19 20 20 21 21 21 23 23 23 24 25 25 24 25 24 24 26 25 22 20 19 19 19 17 15
40 41 43 44 44 45 43 41 37 33 32 32 31 29 28 27 29 29 24 21 20 19 20 20 20 21 21 22 22 22 24 24 24 25 25 26 27 27 27 26 27 28 26 23 21 20 20 18 17
40 41 41 40 39 41 42 37 33 30 29 30 30 29 28 29 30 31 25 22 22 20 20 20 20 21 22 22 22 23 23 24 25 26 27 28 29 29 28 27 27 29 28 25 23 21 22 21 20
37 38 38 36 35 34 33 34 28 27 27 28 28 29 28 29 30 32 27 24 23 22 21 20 21 21 21 21 22 23 23 25 27 28 29 30 31 30 28 27 27 28 28 25 22 23 23 22 21
36 35 34 33 32 31 29 31 27 26 26 25 25 28 28 27 29 31 28 25 24 23 21 20 20 20 20 22 23 24 26 28 30 30 30 31 31 30 29 27 26 26 25 23 22 23 24 22 22
35 34 33 31 31 31 29 29 27 26 25 24 23 24 28 28 28 30 28 26 24 22 20 20 20 21 22 23 24 26 27 29 29 30 30 30 29 28 27 26 25 24 24 23 21 20 21 20 21
30 30 30 29 28 27 26 25 24 24 23 22 21 23 23 25 26 26 24 23 21 19 18 19 20 22 23 25 26 27 28 28 28 28 28 27 26 25 24 24 24 23 23 24 23 21 21 21 22
24 26 26 28 27 24 21 19 17 20 22 22 21 22 22 21 20 19 19 19 18 18 19 20 21 22 24 25 26 26 26 26 26 25 25 24 22 21 21 21 21 21 22 23 24 23 23 23 24
23 22 23 27 28 27 25 20 18 18 19 21 22 22 22 20 17 16 16 17 17 18 20 21 22 22 23 24 24 25 24 23 23 22 22 21 19 18 18 19 18 18 19 21 22 23 24 24 25
26 23 22 24 25 24 22 21 21 20 18 16 15 17 18 17 16 17 18 17 17 19 21 23 22 21 21 22 23 22 22 22 21 20 19 18 17 17 17 17 17 17 17 18 19 21 22 23 24
23 23 25 25 25 22 18 18 20 20 18 14 13 15 17 17 17 17 18 16 17 19 20 21 21 21 21 21 21 22 23 23 21 19 17 16 16 16 16 16 17 17 17 17 18 18 20 21 23
23 21 20 22 23 24 23 20 20 21 16 13 15 17 18 18 19 19 20 20 19 20 20 21 21 21 21 21 22 22 23 24 23 20 18 16 16 16 17 17 17 18 18 18 18 18 18 19 20
Wind_Direction
122 117 123 126 135 122 65 55 49 38 24 341 281 271 269 269 263 257 274 267 275 313 352 1 1 360 360 0 0 4 7 4 358 351 346 346 343 341 333 318 309 302 296 292 271 232 214 212 207
139 139 136 125 98 75 49 42 38 26 11 344 302 284 282 279 271 259 258 253 249 271 314 345 355 357 356 356 358 359 359 358 353 345 339 337 334 332 333 330 325 317 318 320 301 221 208 205 203
151 153 144 135 92 43 22 20 20 16 357 336 316 309 304 290 279 260 252 249 244 252 285 328 347 354 356 355 359 360 357 354 349 343 336 333 329 323 323 331 329 324 325 336 340 226 208 204 204
156 156 152 130 93 22 2 356 1 10 347 328 319 325 310 301 285 265 252 248 245 250 274 311 335 349 358 1 3 360 355 352 348 343 336 331 325 316 311 318 322 317 315 331 357 22 212 210 207
160 151 149 120 54 352 349 333 331 346 352 343 337 329 307 297 283 265 253 244 240 247 268 296 322 342 359 6 7 358 348 346 345 342 336 328 323 314 304 304 311 306 300 300 333 24 97 192 205
162 148 107 71 240 223 247 303 313 321 332 335 335 334 315 298 282 265 252 240 232 245 264 284 312 334 355 4 3 354 345 338 339 341 338 330 324 319 305 295 296 295 286 275 256 238 157 147 180
169 166 143 208 228 219 261 307 315 319 326 332 339 338 325 306 290 272 251 240 235 245 257 275 301 326 347 358 356 348 343 337 335 337 337 334 330 326 314 297 289 285 274 261 243 231 219 197 186
186 187 187 210 227 238 266 300 322 327 326 323 324 328 331 321 297 275 253 243 239 243 253 273 299 319 339 351 356 350 342 338 334 333 333 332 331 331 323 308 291 278 268 255 244 233 227 220 213
201 203 208 242 251 254 274 292 322 335 333 319 317 327 335 328 309 274 251 241 237 239 251 271 294 309 326 336 349 350 342 336 332 328 328 329 327 328 327 316 301 279 267 259 248 238 232 229 226
214 219 226 247 256 261 273 299 327 343 340 320 314 329 336 331 316 281 250 240 239 242 255 274 289 301 314 324 338 344 342 336 330 328 327 328 329 328 328 320 309 287 269 262 251 240 235 233 232
224 232 240 252 258 263 270 287 312 330 334 327 315 312 321 324 318 293 259 244 246 252 255 269 285 296 306 317 329 334 336 339 338 336 334 331 329 328 327 319 311 294 272 260 249 239 237 238 238
233 239 245 250 254 258 265 278 297 313 324 323 319 314 311 309 309 298 271 250 248 256 264 270 278 289 298 309 321 327 328 335 340 341 340 334 330 330 331 323 309 298 279 263 249 241 241 243 243
238 241 245 249 252 255 261 273 289 301 307 309 310 310 308 302 295 291 278 265 258 260 267 275 281 288 295 304 316 321 322 327 332 336 338 334 331 330 336 334 315 299 284 269 257 248 244 244 246
242 245 250 253 256 259 263 272 284 292 297 301 304 305 303 299 295 290 282 274 269 266 269 275 280 289 297 303 312 316 317 321 324 328 333 332 329 327 330 337 327 305 286 271 258 254 248 245 249
244 248 252 257 260 263 267 273 282 284 290 294 298 300 301 299 296 293 290 288 281 274 274 279 284 292 298 302 306 312 314 313 314 320 324 326 324 323 322 325 326 312 293 274 259 253 250 247 249
249 252 256 262 266 267 268 273 278 280 284 286 289 293 294 294 295 291 289 290 288 282 280 285 289 295 299 300 301 306 311 310 308 311 316 317 317 316 318 315 315 311 296 277 261 255 252 252 250
253 255 258 262 268 270 271 270 272 275 278 280 282 284 287 287 288 288 287 287 287 286 287 293 297 296 298 301 302 303 308 309 307 306 308 309 308 308 309 310 306 304 293 279 265 258 254 254 252
255 258 257 257 259 264 265 265 266 271 275 276 276 279 282 283 284 281 282 283 282 282 285 293 299 297 297 302 305 305 306 306 304 302 300 301 299 298 299 299 302 300 293 278 265 256 252 252 249
259 260 260 260 260 259 257 262 267 269 271 272 272 273 275 278 280 279 281 281 280 281 285 291 295 295 297 302 305 304 303 303 300 297 296 294 292 291 291 292 294 296 294 283 267 254 248 246 243
263 264 264 263 262 262 262 264 266 265 267 268 270 270 270 269 271 275 278 277 278 279 283 288 293 295 297 301 303 304 305 303 300 298 295 292 289 288 288 288 288 289 289 283 268 251 242 240 239
268 271 272 272 269 266 265 264 265 263 264 266 268 266 263 259 264 270 271 273 274 275 279 285 289 293 297 300 303 304 302 301 300 298 296 292 289 287 287 286 285 283 282 280 268 250 238 235 234
267 270 274 276 275 273 268 264 260 262 263 265 265 262 257 254 255 263 266 268 271 274 278 282 286 292 296 300 302 303 303 303 302 301 297 293 291 288 286 284 281 279 277 274 267 252 241 234 233
268 270 273 275 275 275 276 274 266 262 259 255 253 256 255 251 251 257 261 264 267 270 274 279 286 292 297 302 305 306 305 305 304 302 298 293 290 287 283 280 278 275 272 267 262 253 244 238 234
271 270 269 271 273 274 275 277 275 264 253 243 242 249 254 252 250 252 255 258 261 264 270 280 289 295 301 304 306 306 305 304 302 299 297 295 291 285 280 276 274 269 265 259 260 252 247 243 240
275 273 271 270 271 274 273 272 272 268 258 253 258 257 253 252 250 252 254 256 258 262 271 283 292 298 302 305 305 304 304 303 300 297 297 296 294 287 280 275 272 265 259 256 254 251 250 250 250
274 271 269 268 267 268 271 270 272 275 277 279 280 278 265 256 254 254 255 257 259 267 277 286 292 297 300 301 301 302 303 303 300 298 296 295 293 287 279 274 270 264 257 253 251 252 254 255 254
273 265 261 264 263 265 268 275 278 278 280 280 279 280 277 271 265 261 261 261 266 274 282 288 292 294 296 297 299 302 305 306 303 299 297 294 291 285 280 276 271 266 258 252 251 252 255 256 256
259 255 250 255 259 261 259 256 256 260 259 260 267 276 273 265 257 255 256 255 267 277 284 289 291 293 295 296 297 300 306 310 308 303 299 295 289 284 282 278 273 270 265 257 254 256 255 257 256
250 246 243 245 248 252 248 248 249 248 234 216 221 245 255 255 261 264 269 273 276 279 283 287 290 293 296 295 296 300 305 310 310 304 300 296 289 282 279 276 272 270 267 263 261 262 258 259 259
247 239 240 244 246 248 249 250 253 243 235 231 241 241 243 250 257 266 274 279 281 281 282 284 288 294 296 295 297 302 305 306 305 301 297 294 287 279 274 272 270 269 266 265 264 265 264 265 264
Height
5887 5887 5887 5888 5888 5887 5887 5888 5887 5886 5886 5886 5886 5885 5885 5886 5887 5890 5888 5887 5888 5888 5888 5887 5885 5884 5882 5881 5880 5878 5877 5876 5875 5874 5873 5872 5871 5870 5869 5869 5869 5868 5867 5867 5865 5865 5866 5869 5872
5887 5887 5888 5888 5887 5887 5888 5887 5887 5886 5886 5885 5884 5884 5883 5884 5884 5885 5885 5886 5887 5888 5888 5887 5885 5883 5882 5880 5879 5878 5877 5875 5874 5874 5873 5872 5870 5869 5869 5868 5868 5867 5867 5866 5864 5863 5865 5868 5871
5887 5888 5888 5889 5887 5888 5888 5887 5887 5887 5886 5884 5884 5883 5882 5882 5883 5883 5884 5885 5886 5887 5887 5886 5885 5883 5881 5880 5879 5877 5876 5875 5874 5873 5871 5870 5869 5868 5868 5868 5867 5866 5866 5866 5865 5864 5865 5867 5870
5887 5888 5889 5889 5887 5888 5888 5887 5887 5887 5886 5884 5884 5884 5882 5881 5882 5882 5883 5884 5885 5886 5886 5886 5884 5883 5881 5879 5878 5877 5876 5875 5873 5872 5870 5869 5868 5868 5867 5867 5867 5866 5866 5866 5865 5865 5865 5866 5868
5886 5888 5889 5888 5888 5888 5887 5887 5886 5886 5886 5885 5884 5884 5882 5881 5881 5881 5882 5883 5884 5885 5885 5885 5884 5882 5881 5879 5877 5876 5875 5874 5873 5871 5869 5868 5867 5867 5867 5866 5866 5866 5866 5866 5866 5866 5865 5865 5868
5886 5888 5889 5887 5888 5888 5888 5887 5886 5886 5886 5884 5884 5883 5882 5881 5880 5881 5881 5882 5883 5884 5884 5884 5883 5882 5881 5879 5877 5876 5875 5874 5872 5871 5869 5867 5866 5866 5866 5865 5865 5866 5865 5865 5866 5866 5866 5867 5868
5887 5888 5888 5887 5888 5888 5888 5887 5887 5886 5885 5884 5883 5883 5881 5880 5880 5880 5880 5881 5882 5883 5883 5883 5882 5882 5881 5879 5877 5875 5874 5872 5871 5870 5868 5867 5866 5865 5865 5864 5864 5865 5865 5865 5865 5866 5867 5868 5869
5885 5888 5887 5887 5888 5888 5887 5887 5886 5885 5885 5884 5883 5883 5881 5880 5879 5879 5879 5880 5881 5882 5882 5882 5882 5881 5880 5878 5876 5874 5873 5871 5870 5869 5867 5866 5864 5864 5863 5863 5863 5863 5863 5864 5864 5865 5866 5867 5868
5884 5887 5887 5887 5887 5887 5887 5886 5886 5885 5884 5884 5883 5882 5881 5879 5878 5878 5878 5879 5880 5880 5881 5881 5881 5881 5880 5877 5875 5873 5872 5870 5869 5868 5866 5864 5863 5862 5862 5861 5861 5861 5861 5862 5863 5864 5865 5866 5867
5883 5885 5886 5886 5886 5887 5886 5886 5885 5884 5883 5883 5883 5882 5880 5879 5878 5877 5877 5877 5878 5879 5879 5879 5880 5879 5878 5876 5874 5873 5871 5870 5868 5867 5865 5863 5861 5860 5860 5859 5859 5859 5859 5859 5860 5862 5863 5864 5865
5881 5883 5884 5884 5885 5886 5886 5885 5884 5883 5882 5881 5881 5881 5880 5879 5878 5876 5876 5876 5876 5877 5877 5877 5877 5877 5876 5875 5873 5872 5870 5869 5867 5866 5864 5862 5861 5859 5858 5858 5857 5857 5857 5857 5858 5859 5860 5861 5862
5879 5881 5882 5883 5884 5884 5884 5884 5883 5882 5881 5880 5878 5878 5878 5877 5876 5875 5875 5875 5875 5875 5874 5875 5874 5874 5873 5872 5871 5870 5869 5868 5866 5865 5863 5861 5860 5859 5857 5856 5855 5855 5855 5856 5856 5857 5858 5859 5860
5877 5878 5879 5881 5881 5882 5882 5882 5881 5880 5880 5879 5877 5876 5875 5875 5874 5873 5872 5872 5873 5873 5873 5872 5871 5871 5870 5869 5869 5868 5867 5866 5864 5863 5861 5859 5858 5857 5856 5854 5853 5853 5853 5854 5854 5855 5855 5856 5857
5874 5875 5876 5878 5878 5879 5879 5879 5878 5878 5877 5876 5875 5874 5873 5872 5870 5870 5870 5870 5870 5870 5870 5869 5869 5868 5867 5866 5866 5866 5865 5863 5862 5861 5859 5857 5856 5855 5853 5853 5852 5852 5852 5852 5852 5853 5853 5854 5855
5871 5872 5873 5874 5874 5874 5875 5876 5875 5874 5874 5873 5872 5871 5870 5869 5868 5866 5866 5867 5867 5867 5867 5866 5865 5865 5864 5863 5862 5862 5861 5861 5859 5858 5857 5855 5854 5852 5851 5850 5850 5850 5850 5850 5851 5851 5851 5851 5852
5867 5868 5870 5870 5869 5869 5872 5872 5871 5869 5869 5869 5869 5868 5867 5866 5865 5864 5863 5863 5863 5863 5863 5863 5862 5861 5861 5860 5858 5858 5858 5857 5856 5855 5854 5853 5851 5850 5849 5848 5848 5848 5848 5848 5848 5848 5849 5849 5850
5862 5863 5864 5865 5864 5864 5864 5866 5866 5864 5864 5865 5865 5864 5863 5862 5863 5861 5860 5860 5860 5859 5859 5859 5857 5857 5857 5856 5854 5854 5853 5853 5852 5852 5851 5850 5849 5848 5847 5846 5845 5845 5845 5845 5845 5845 5846 5846 5847
5857 5856 5857 5858 5857 5856 5856 5857 5859 5858 5858 5859 5860 5860 5858 5857 5858 5858 5857 5857 5856 5856 5855 5855 5854 5853 5852 5852 5850 5849 5849 5849 5849 5847 5846 5846 5845 5845 5844 5843 5842 5842 5842 5842 5842 5842 5842 5843 5844
5850 5850 5851 5851 5849 5848 5847 5848 5850 5851 5852 5852 5853 5855 5854 5853 5852 5852 5853 5853 5853 5853 5852 5851 5850 5849 5848 5848 5847 5846 5845 5845 5844 5843 5842 5841 5841 5841 5840 5839 5838 5838 5838 5838 5838 5838 5839 5840 5841
5841 5841 5841 5842 5842 5840 5839 5840 5842 5844 5845 5845 5846 5847 5848 5848 5846 5846 5849 5849 5849 5849 5848 5847 5846 5845 5844 5844 5843 5842 5841 5840 5839 5838 5837 5836 5835 5835 5835 5835 5833 5833 5833 5833 5833 5834 5835 5836 5837
5834 5833 5832 5832 5833 5832 5831 5832 5834 5836 5836 5838 5839 5840 5842 5842 5840 5840 5843 5844 5844 5844 5843 5842 5842 5841 5840 5839 5838 5837 5836 5835 5833 5832 5831 5830 5829 5828 5829 5829 5828 5827 5826 5827 5827 5829 5830 5831 5833
5825 5824 5824 5824 5824 5824 5824 5823 5827 5828 5829 5830 5831 5832 5834 5835 5834 5833 5836 5838 5838 5838 5837 5837 5837 5836 5836 5835 5834 5832 5831 5829 5828 5826 5824 5823 5821 5821 5821 5821 5821 5820 5820 5821 5821 5823 5824 5826 5828
5817 5817 5817 5816 5816 5818 5817 5815 5820 5819 5820 5822 5823 5824 5825 5827 5827 5827 5829 5831 5831 5832 5832 5832 5832 5832 5831 5830 5828 5827 5825 5823 5821 5819 5818 5816 5814 5813 5813 5813 5813 5813 5813 5814 5815 5816 5818 5821 5822
5808 5809 5809 5809 5809 5811 5811 5810 5812 5811 5812 5813 5814 5816 5817 5819 5820 5820 5822 5824 5825 5826 5826 5827 5827 5826 5825 5824 5823 5821 5819 5817 5815 5813 5811 5809 5807 5806 5806 5806 5806 5806 5807 5808 5809 5810 5813 5815 5817
5802 5802 5802 5802 5802 5804 5803 5804 5805 5805 5806 5807 5808 5809 5810 5811 5812 5813 5816 5817 5819 5820 5821 5822 5821 5821 5820 5818 5816 5815 5813 5811 5809 5807 5805 5802 5800 5799 5799 5799 5799 5800 5801 5802 5804 5805 5808 5810 5812
5796 5796 5797 5796 5797 5797 5797 5798 5799 5799 5800 5802 5803 5804 5804 5805 5806 5808 5811 5812 5814 5815 5816 5816 5816 5815 5814 5812 5811 5809 5807 5805 5803 5801 5799 5796 5795 5793 5793 5793 5793 5794 5795 5797 5798 5800 5802 5804 5807
5789 5789 5789 5789 5789 5790 5792 5793 5793 5794 5795 5797 5798 5799 5800 5801 5801 5803 5805 5807 5809 5810 5811 5811 5811 5810 5808 5807 5805 5803 5802 5800 5797 5795 5793 5791 5789 5788 5788 5788 5788 5789 5790 5791 5793 5795 5796 5798 5800
5782 5782 5782 5783 5784 5785 5788 5789 5789 5788 5789 5790 5791 5792 5793 5793 5794 5796 5797 5800 5803 5804 5805 5805 5805 5804 5803 5801 5800 5798 5797 5795 5792 5790 5788 5786 5785 5784 5784 5784 5785 5785 5786 5787 5788 5789 5791 5792 5794
5773 5773 5774 5775 5777 5779 5781 5785 5782 5782 5782 5780 5783 5786 5788 5789 5792 5793 5792 5793 5797 5798 5799 5799 5799 5798 5798 5796 5795 5794 5792 5789 5787 5785 5784 5782 5781 5781 5780 5781 5781 5782 5782 5783 5783 5784 5785 5787 5788
5762 5763 5765 5769 5771 5773 5775 5780 5774 5775 5775 5775 5777 5779 5782 5785 5787 5789 5790 5791 5792 5793 5794 5794 5794 5793 5793 5791 5790 5788 5786 5784 5783 5781 5780 5778 5777 5777 5777 5777 5777 5777 5778 5778 5779 5779 5780 5781 5782